Hourly Data Report for October 24, 2016

All times are specified in Local Standard Time (LST). Add 1 hour to adjust for Daylight Saving Time where and when it is observed.

KUGAARUK CLIMATE
NUNAVUT

68°32'15.060" N
89°47'47.020" W
15.80 m
2303094
71407
NBB

Download Data

Hourly Data (October 2016)
Hourly Data Report for October 24, 2016
Temp Definition
°C
Dew Point Temp Definition
°C
Rel Hum Definition
%
Wind Dir Definition
10's deg

Wind Spd Definition
km/h
Visibility Definition
km
Stn Press Definition
kPa
Hmdx Definition


Wind Chill Definition


Weather Definition


TIME
00:00 -7.6 -10.1 82 22 21   103.25   -15 LegendNANA
01:00 -7.6 -10.2 82 22 29   103.21   -16 LegendNANA
02:00 -7.4 -9.9 82 23 23   103.23   -15 LegendNANA
03:00 -7.3 -9.7 82 22 23   103.21   -15 LegendNANA
04:00 -7.6 -9.7 85 22 24   103.18   -16 LegendNANA
05:00 -7.8 -9.8 86 22 28   103.14   -16 LegendNANA
06:00 -7.8 -9.6 87 21 27   103.10   -16 LegendNANA
07:00 -7.3 -8.9 88 22 27   103.08   -16 LegendNANA
08:00 -6.8 -8.4 88 22 26   103.05   -15 LegendNANA
09:00 -6.3 -7.9 88 23 26   103.01   -14 LegendNANA
10:00 -6.2 -7.9 88 23 28   102.98   -14 LegendNANA
11:00 -5.8 -7.5 87 22 25   102.98   -13 LegendNANA
12:00 -5.5 -7.3 87 22 20   102.95   -12 LegendNANA
13:00 -5.2 -6.7 89 22 20   102.93   -12 LegendNANA
14:00 -5.0 -6.7 88 28 11   102.93   -10 LegendNANA
15:00 -5.4 -7.0 89 28 7   102.91   -9 LegendNANA
16:00 -5.6 -6.8 91 24 10   102.88   -10 LegendNANA
17:00 -5.4 -6.6 91 27 14   102.85   -11 LegendNANA
18:00 -5.4 -6.4 93 25 11   102.82   -10 LegendNANA
19:00 -5.4 -6.3 93 26 16   102.80   -11 LegendNANA
20:00 -5.6 -6.5 94 25 11   102.76   -10 LegendNANA
21:00 -5.6 -6.4 94 26 11   102.73   -10 LegendNANA
22:00 -5.1 -5.8 95 26 9   102.69   -9 LegendNANA
23:00 -5.1 -5.9 94 28 8   102.67   -9 LegendNANA

Notes on Data Quality.

Legend

  • E = Estimated
  • M = Missing
  • NA = Not Available
  • ‡ = Partner data that is not subject to review by the National Climate Archives
Date modified: